Fort Covington, New York, United States (12937)
Lat: 44.99N, Lon: 74.5W
Wx Zone: NYZ027
Local Info
Past Weather Observations for Saturday, April 19, 2014

NOTE: This archive is for the closest National Weather Service station to Fort Covington. Information may differ from the station used for current weather conditions.

Time Weather Temperature Dewpoint Humidity Pressure Winds Precip Visibility
23:53
Clear
28°F / -2°C 25°F / -4°C 86% 30.48 in
(1032 mb)
Calm - 10SM
22:53
Clear
30°F / -1°C 25°F / -4°C 80% 30.48 in
(1032 mb)
Calm - 10SM
21:53
Clear
30°F / -1°C 25°F / -4°C 80% 30.45 in
(1031 mb)
Calm - 10SM
20:53
Clear
34°F / 1°C 27°F / -3°C 75% 30.45 in
(1031 mb)
Calm - 10SM
19:53
Clear
37°F / 3°C 23°F / -5°C 56% 30.45 in
(1031 mb)
Calm - 10SM
18:53
Clear
46°F / 8°C 19°F / -7°C 34% 30.42 in
(1030 mb)
NNW 3.5 mph
(NNW 6 kph)
- 10SM
17:53
Clear
48°F / 9°C 19°F / -7°C 32% 30.42 in
(1030 mb)
NW 6.9 mph
(NW 11 kph)
- 10SM
16:53
Clear
50°F / 10°C 19°F / -7°C 30% 30.42 in
(1030 mb)
NNW 10.4 mph
(NNW 17 kph)
- 10SM
15:53
Clear
50°F / 10°C 25°F / -4°C 37% 30.39 in
(1029 mb)
NNW 13.8 mph
(NNW 22 kph)
- 10SM
14:53
Clear
50°F / 10°C 25°F / -4°C 37% 30.39 in
(1029 mb)
NW 9.2 mph
(NW 15 kph)
- 10SM
13:53
Clear
46°F / 8°C 27°F / -3°C 46% 30.42 in
(1030 mb)
NW 15 mph
(NW 24 kph)
- 10SM
12:53
Partly Cloudy
46°F / 8°C 30°F / -1°C 53% 30.42 in
(1030 mb)
WNW 11.5 mph
(WNW 19 kph)
- 10SM
11:53
Mostly Cloudy
45°F / 7°C 30°F / -1°C 57% 30.39 in
(1029 mb)
NW 9.2 mph
(NW 15 kph)
- 10SM
10:53
Overcast
45°F / 7°C 30°F / -1°C 57% 30.42 in
(1030 mb)
NW 8.1 mph
(NW 13 kph)
- 10SM
09:53
Overcast
43°F / 6°C 32°F / 0°C 66% 30.39 in
(1029 mb)
NW 13.8 mph
(NW 22 kph)
- 10SM
09:38
Overcast
43°F / 6°C 34°F / 1°C 71% 30.39 in
(1029 mb)
NW 10.4 mph
(NW 17 kph)
- 10SM
09:25
Overcast
41°F / 5°C 34°F / 1°C 76% 30.39 in
(1029 mb)
NW 13.8 mph
(NW 22 kph)
- 10SM
08:53
Partly Cloudy
43°F / 6°C 34°F / 1°C 71% 30.39 in
(1029 mb)
NNW 9.2 mph
(NNW 15 kph)
- 10SM
07:53
Overcast
41°F / 5°C 34°F / 1°C 76% 30.36 in
(1028 mb)
NW 9.2 mph
(NW 15 kph)
- 10SM
06:53
Overcast
39°F / 4°C 36°F / 2°C 87% 30.33 in
(1027 mb)
NW 9.2 mph
(NW 15 kph)
- 10SM
06:50
Overcast
39°F / 4°C 36°F / 2°C 87% 30.33 in
(1027 mb)
NW 10.4 mph
(NW 17 kph)
- 10SM
06:02
Overcast
39°F / 4°C 37°F / 3°C 93% 30.3 in
(1026 mb)
NNW 9.2 mph
(NNW 15 kph)
- 10SM
05:53
Overcast
39°F / 4°C 37°F / 3°C 93% 30.3 in
(1026 mb)
NNW 10.4 mph
(NNW 17 kph)
0.00 in
(0.00 mm)
10SM
05:06
Overcast
Light Rain
41°F / 5°C 37°F / 3°C 87% 30.24 in
(1024 mb)
NNW 10.4 mph
(NNW 17 kph)
0.00 in
(0.00 mm)
10SM
04:53
Overcast
Light Rain
41°F / 5°C 39°F / 4°C 93% 30.24 in
(1024 mb)
NW 10.4 mph
(NW 17 kph)
0.02 in
(0.51 mm)
6SM
03:53
Overcast
43°F / 6°C 39°F / 4°C 87% 30.21 in
(1023 mb)
SSW 8.1 mph
(SSW 13 kph)
- 10SM
03:40
Overcast
43°F / 6°C 39°F / 4°C 87% 30.21 in
(1023 mb)
W 8.1 mph
(W 13 kph)
- 10SM
03:11
Overcast
43°F / 6°C 39°F / 4°C 87% 30.21 in
(1023 mb)
SSW 8.1 mph
(SSW 13 kph)
- 10SM
02:53
Overcast
43°F / 6°C 39°F / 4°C 87% 30.18 in
(1022 mb)
SSW 6.9 mph
(SSW 11 kph)
- 10SM
01:53
Overcast
43°F / 6°C 41°F / 5°C 93% 30.18 in
(1022 mb)
SSW 6.9 mph
(SSW 11 kph)
- 9SM
00:53
Overcast
43°F / 6°C 41°F / 5°C 93% 30.18 in
(1022 mb)
SW 6.9 mph
(SW 11 kph)
- 8SM
Time Weather Temperature Dewpoint Humidity Pressure Winds Precip Visibility


Weather for websites

WeatherForYou.com, LLC is not responsible for any damages or problems caused by this service. Current weather conditions are obtained from the closest station including government and personal stations which may have varying degrees of accuracy. Weather forecasts are derived from the NOAA NDFD. Like all things, this site belongs to Jesus Christ... He just trusts me to maintain it. If you have any questions or comments email webmaster@weatherforyou.com

Copyright © 2014, WeatherForYou.com LLC. All rights reserved.